Tracking 19477 objects as of 16-Jan-2019
HD Live streaming from Space Station
objects crossing your sky now

BRAZILSAT B4

Track BRAZILSAT B4 now!
BRAZILSAT B4 is classified as:


NORAD ID: 26469
Int'l Code: 2000-046A
Perigee: 35,780.7 km
Apogee: 35,806.6 km
Inclination: 2.9 °
Period: 1,436.1 minutes
Semi major axis: 42164 km
RCS: 7.7245 m2 (large)
Launch date: August 17, 2000
Source: Brazil (BRAZ)
Launch site: FRENCH GUIANA (FRGUI)

28 C-band; voice and video communications to all of South America.
aabbcc
Your satellite tracking list
Your tracking list is empty




NASA's NSSDC Master Catalog

Two Line Element Set (TLE):
1 26469U 00046A   19015.16444257 -.00000160 +00000-0 +00000-0 0  9994
2 26469 002.8580 081.7676 0003078 231.7918 127.9678 01.00272060067793
Source of the keplerian elements: AFSPC